Location: Newark
(41.0400°S, 62.7845°W)
Time: 03:42:46
(UTC+00:00)

Vanguard 2 Rocket - Pass Details

Date: 04 December 2021
Orbit: 554 x 3325 km, 32.9° (Epoch: 21 January)

Event Time Altitude Azimuth Distance (km) Brightness Sun altitude
Rises 08:00:51 0° 318° (NW) 7,284 - -5.8°
Exits shadow 08:03:00 - 320° (NW) 6,884 10.7 -5.5°
Reaches altitude 10° 08:06:16 10° 324° (NW) 6,273 10.6 -5.0°
Maximum altitude 08:23:47 41° 25° (NNE) 3,700 10.0 -2.3°
Drops below altitude 10° 08:36:28 10° 88° (E) 4,631 11.6 -0.2°
Sets 08:39:43 0° 95° (E) 5,294 12.2 0.3°
